Location: Newark
(32.9900°N, 111.5400°W)
Time: 23:15:32
(UTC+00:00)

N. Korean satellite - Pass Details

Date: 27 November 2019
Orbit: 455 x 507 km, 97.2° (Epoch: 14 December)

Event Time Altitude Azimuth Distance (km) Brightness Sun altitude
Rises 00:41:11 0° 172° (S) 2,565 10.4 -4.9°
Reaches altitude 10° 00:43:15 10° 174° (S) 1,694 9.5 -5.3°
Maximum altitude 00:46:54 73° 259° (W) 528 6.9 -6.0°
Drops below altitude 10° 00:50:36 10° 345° (NNW) 1,722 9.3 -6.7°
Sets 00:52:43 0° 347° (NNW) 2,613 10.2 -7.1°
